Wind_Speed
65 64 66 65 61 57 57 56 57 58 50 56 59 53 47 47 56 54 51 54 51 50 50 47 43 47 45 44 41 36 35 35 33 30 31 30 31 33 33 35 36 36 34 32
64 64 63 60 58 59 54 50 52 55 54 55 57 56 51 47 51 57 54 54 54 47 48 47 45 43 47 47 44 43 40 37 35 33 33 34 32 32 33 33 33 34 33 32
67 65 54 63 57 58 60 54 40 44 53 56 58 63 52 50 51 54 55 53 54 50 46 44 49 42 45 43 45 43 42 40 40 37 36 35 34 30 28 27 30 33 35 35
64 59 67 61 63 55 63 66 52 60 64 66 58 70 59 53 46 50 48 51 51 48 44 39 42 49 36 38 40 45 46 45 42 42 39 36 35 31 29 31 32 33 32 31
54 51 63 68 61 62 52 66 71 67 66 65 62 65 66 58 54 43 43 46 50 48 43 39 37 44 38 38 40 43 45 47 45 43 42 38 34 34 35 34 33 32 30 30
52 55 58 56 55 66 60 58 62 64 67 69 63 65 71 60 60 53 48 37 42 46 43 42 36 41 44 39 36 40 43 45 44 44 42 40 39 37 39 37 35 35 33 33
54 53 53 53 56 57 66 65 63 62 65 66 62 69 73 57 59 55 51 49 40 37 45 43 40 40 42 43 39 35 41 42 45 46 46 42 41 42 39 38 39 38 36 34
52 56 57 55 57 56 58 59 63 64 61 63 64 67 65 56 57 48 40 41 42 40 44 46 44 43 43 42 45 38 36 41 43 45 45 45 44 42 43 41 41 43 41 37
49 51 49 53 52 56 57 59 57 59 60 60 61 59 59 56 55 53 49 43 44 44 44 45 46 44 45 47 46 46 41 38 43 42 42 45 42 44 44 44 45 44 44 43
43 45 47 44 50 53 54 53 56 57 59 59 59 62 57 54 52 54 55 47 43 32 37 42 45 49 49 49 47 45 46 44 42 43 43 42 44 47 46 46 45 44 43 45
41 46 46 46 48 47 51 53 55 56 38 51 56 51 48 51 51 49 44 45 42 34 35 39 38 43 49 52 51 52 49 46 47 45 43 43 44 48 49 50 46 38 42 45
37 42 44 41 42 47 48 49 51 54 60 60 58 52 48 57 56 55 57 51 54 52 45 39 44 38 44 52 55 54 52 53 50 49 43 44 46 47 49 34 35 38 41 41
36 38 37 40 41 44 47 45 47 48 51 59 61 60 38 46 51 64 63 61 60 56 53 46 43 49 47 44 52 53 55 53 53 50 49 48 49 50 37 38 41 41 39 39
36 37 38 38 35 38 44 45 47 47 49 52 56 58 60 62 60 65 66 63 67 64 61 53 44 46 52 56 53 55 59 57 54 50 51 50 50 47 40 44 45 44 42 41
34 34 34 33 37 41 44 46 43 50 52 53 53 55 51 54 67 73 71 69 68 64 55 58 51 49 49 52 59 58 58 61 65 61 55 52 52 53 50 48 48 46 46 47
35 34 33 33 38 41 45 46 48 49 45 49 54 57 46 51 57 60 61 60 66 66 59 58 56 55 53 55 59 61 63 65 66 65 63 60 59 55 56 56 57 54 51 51
32 31 32 36 36 39 43 38 41 44 48 50 53 47 48 53 49 54 60 61 60 61 65 65 64 58 59 61 58 56 58 63 65 64 65 64 65 64 61 60 62 61 58 57
32 27 30 35 37 41 35 37 37 37 36 39 47 49 48 54 55 51 56 64 63 64 61 59 65 67 64 63 59 60 58 61 64 63 64 68 69 67 65 64 64 64 67 67
32 32 35 37 40 42 38 37 41 44 45 46 47 45 49 53 54 59 61 58 60 65 70 67 63 63 63 65 73 67 66 61 63 64 65 67 70 72 72 69 68 68 68 68
34 34 37 40 42 45 42 39 39 42 45 44 43 44 47 51 55 61 60 63 65 64 66 69 71 69 70 70 67 71 67 69 62 68 67 68 68 68 71 73 74 72 71 69
33 35 37 39 43 44 42 40 42 45 43 45 46 46 45 49 57 63 68 65 65 67 64 62 62 65 66 70 72 68 72 70 74 70 67 66 66 66 68 68 69 73 73 73
27 31 34 36 40 43 40 42 43 43 44 46 45 47 50 52 53 57 66 68 65 64 67 69 70 63 57 59 65 65 67 71 70 74 72 66 64 64 64 64 67 72 70 71
29 28 32 34 37 41 42 42 43 45 47 49 50 50 51 53 55 58 60 67 67 65 64 62 65 70 68 68 63 61 61 65 67 68 67 67 65 62 63 67 67 64 66 69
33 36 36 37 40 44 46 48 50 52 54 57 57 57 56 56 57 58 61 63 66 66 65 64 63 64 64 62 62 61 60 60 63 66 67 67 69 71 68 68 70 70 70 69
38 40 41 43 46 49 52 52 53 55 57 58 59 60 61 62 60 61 60 63 66 67 66 66 67 67 65 64 63 60 57 59 61 64 66 69 71 72 69 71 70 67 64 65
45 47 50 52 53 54 52 51 53 54 56 60 62 60 64 67 67 65 63 63 64 67 70 69 68 69 69 66 64 62 62 59 63 64 68 72 72 70 69 68 68 70 69 66
Wind_Direction
238 240 240 245 244 246 247 252 257 255 248 250 257 257 261 258 255 255 254 250 253 258 263 271 250 250 246 250 253 253 254 256 259 260 259 256 252 249 248 250 255 259 265 269
236 239 240 242 241 241 241 237 243 241 240 245 249 253 257 260 259 256 252 250 250 251 257 266 269 254 250 250 248 250 252 256 258 257 257 256 254 254 253 255 259 261 264 266
239 239 237 237 238 237 232 230 235 240 235 240 246 254 257 260 261 257 253 245 244 245 250 257 268 266 250 247 250 250 254 252 252 255 256 256 256 257 261 259 258 258 257 260
240 233 236 237 236 237 233 230 244 245 242 242 244 254 255 255 257 258 256 244 242 243 242 243 253 271 256 255 252 251 249 249 250 252 253 255 255 255 255 254 253 257 260 264
240 237 236 239 237 239 239 237 239 240 243 246 242 251 253 253 251 261 259 250 243 238 239 239 241 259 260 258 258 257 253 251 252 254 255 256 257 256 252 253 255 257 258 259
234 234 235 235 236 239 239 243 242 246 247 250 244 251 255 256 257 251 256 262 256 239 241 240 235 248 259 260 259 259 254 254 254 254 253 257 259 257 255 253 253 254 252 254
237 235 237 235 235 237 238 241 247 249 249 253 247 251 256 255 260 262 251 256 262 244 240 241 239 239 247 251 263 261 259 257 252 253 250 251 255 256 254 254 253 252 254 255
242 240 240 242 236 238 239 242 243 246 251 254 250 255 252 257 258 257 258 259 258 257 245 245 244 238 241 249 255 263 261 256 252 251 253 250 250 253 255 250 251 251 253 257
245 246 240 238 240 241 240 242 243 247 247 252 253 258 254 255 258 252 254 262 257 251 247 246 248 244 243 245 251 253 262 264 255 250 257 254 251 254 257 256 253 256 258 263
245 246 244 241 239 239 239 242 244 246 250 250 256 255 251 250 253 257 256 251 240 236 244 247 250 249 245 247 250 250 256 261 259 265 257 253 256 252 255 255 256 260 264 266
244 246 245 240 242 242 239 239 240 241 248 243 247 254 243 248 240 246 236 227 219 236 253 248 245 247 253 249 249 251 252 254 259 258 263 262 255 249 247 251 254 257 264 266
247 245 249 248 246 245 243 242 240 242 241 248 246 246 243 238 237 241 244 251 246 249 261 263 251 243 249 253 254 252 254 256 253 257 259 260 254 249 253 251 259 260 261 264
240 241 242 244 244 247 248 245 246 248 247 248 250 237 214 230 236 237 244 252 262 267 269 266 263 251 253 258 257 254 255 252 253 250 255 258 258 253 249 253 256 257 258 263
234 236 240 247 251 252 251 251 252 253 252 249 249 247 234 236 238 243 246 249 255 262 267 269 262 264 260 259 259 256 254 253 252 248 252 255 257 259 253 255 254 255 257 263
237 239 242 246 246 245 249 247 246 248 249 248 245 251 246 239 242 244 252 255 252 255 260 260 253 257 260 256 253 253 252 255 255 252 250 251 250 254 254 253 259 257 258 260
247 246 247 248 247 248 247 250 255 252 253 256 255 253 247 246 252 252 251 254 257 257 250 248 249 248 248 247 252 249 250 251 255 254 252 251 252 249 250 251 252 256 260 260
247 249 252 251 251 253 253 255 256 258 256 262 259 257 239 246 257 258 255 255 252 251 252 246 241 243 243 243 243 244 248 250 250 253 254 253 252 251 251 250 251 253 254 254
243 237 244 249 252 252 258 248 252 256 257 262 261 257 248 248 248 253 250 250 251 248 249 251 249 246 247 241 241 249 248 250 251 250 252 252 252 253 253 253 252 251 252 254
243 239 245 248 253 263 258 257 263 264 258 262 263 259 253 251 246 251 250 254 255 254 251 249 252 253 251 247 246 248 251 249 252 252 252 253 251 252 255 257 257 256 257 257
251 253 255 258 260 263 264 261 267 268 264 265 267 266 259 251 246 248 252 254 257 258 256 255 255 255 258 255 253 246 249 250 250 254 255 255 256 255 254 256 258 258 258 257
258 259 261 261 265 266 268 271 270 269 270 270 269 267 261 257 250 246 250 253 256 255 260 262 262 257 256 257 259 252 248 250 253 251 256 258 260 261 261 259 260 259 259 260
256 258 263 265 269 275 278 276 278 277 273 270 270 269 266 262 257 257 254 253 257 260 261 264 262 257 252 255 257 254 249 249 252 254 255 258 260 261 262 264 262 261 264 265
260 265 264 268 272 277 282 285 284 285 284 282 279 275 268 263 262 260 257 255 255 257 259 262 265 263 263 263 262 257 253 250 250 251 254 257 259 260 260 261 263 265 265 265
265 271 273 275 278 282 281 282 283 284 283 281 279 278 275 270 267 263 259 258 258 257 257 259 260 261 262 262 261 259 257 257 255 254 255 257 258 259 258 259 260 263 265 268
269 272 275 277 280 282 284 286 286 285 285 283 280 278 277 275 271 267 263 259 257 257 256 257 258 258 260 261 261 261 261 262 266 266 265 265 266 267 262 259 259 258 259 261
269 272 275 276 279 283 286 287 287 287 285 284 282 278 277 276 273 271 267 264 258 256 256 256 257 257 259 260 262 264 264 264 264 267 268 269 272 272 269 261 257 257 257 257
Height
5717 5719 5726 5741 5743 5746 5749 5752 5756 5766 5770 5764 5769 5778 5783 5792 5793 5796 5800 5804 5808 5811 5814 5815 5816 5816 5819 5822 5824 5827 5827 5829 5830 5832 5834 5834 5835 5836 5838 5840 5842 5843 5845 5846
5699 5704 5730 5724 5728 5734 5740 5745 5749 5754 5754 5753 5758 5767 5773 5782 5786 5787 5791 5796 5800 5803 5804 5808 5806 5809 5812 5814 5817 5817 5819 5821 5822 5824 5825 5827 5827 5830 5831 5833 5835 5837 5838 5838
5688 5710 5712 5710 5718 5721 5730 5734 5738 5737 5738 5740 5745 5752 5765 5776 5775 5778 5781 5787 5789 5793 5795 5798 5799 5799 5801 5806 5808 5810 5812 5813 5812 5814 5816 5818 5821 5824 5826 5827 5828 5828 5828 5829
5676 5699 5693 5697 5704 5712 5714 5729 5722 5725 5728 5730 5734 5732 5754 5763 5768 5771 5775 5776 5781 5785 5785 5786 5791 5792 5792 5795 5795 5799 5801 5803 5804 5804 5807 5810 5813 5816 5818 5818 5818 5819 5821 5823
5672 5684 5682 5686 5701 5704 5711 5710 5711 5714 5717 5717 5728 5719 5748 5754 5765 5771 5766 5767 5769 5772 5775 5776 5779 5782 5784 5787 5788 5789 5792 5794 5796 5796 5800 5802 5805 5808 5808 5809 5810 5812 5813 5815
5662 5669 5668 5679 5690 5689 5700 5699 5702 5704 5705 5698 5723 5717 5728 5748 5757 5761 5762 5760 5758 5762 5765 5767 5769 5773 5776 5777 5779 5780 5782 5785 5787 5788 5790 5793 5796 5798 5798 5801 5802 5803 5805 5806
5658 5657 5664 5672 5678 5680 5687 5692 5692 5691 5692 5691 5721 5697 5710 5740 5742 5749 5752 5751 5751 5752 5755 5757 5760 5761 5765 5767 5770 5771 5772 5775 5776 5777 5779 5783 5785 5785 5788 5791 5792 5794 5796 5798
5641 5647 5657 5667 5666 5675 5677 5681 5680 5680 5685 5694 5700 5685 5709 5731 5731 5738 5742 5741 5742 5743 5745 5747 5749 5751 5755 5757 5760 5762 5763 5764 5765 5767 5769 5772 5774 5774 5777 5780 5784 5784 5786 5789
5633 5639 5646 5648 5659 5662 5668 5664 5677 5672 5678 5678 5678 5686 5706 5718 5723 5727 5728 5730 5732 5732 5734 5738 5739 5742 5744 5747 5749 5750 5753 5752 5752 5756 5759 5761 5763 5763 5768 5770 5771 5774 5776 5780
5628 5631 5635 5643 5642 5647 5654 5663 5663 5665 5666 5666 5670 5680 5693 5707 5714 5715 5717 5718 5721 5722 5725 5726 5728 5731 5733 5735 5737 5739 5741 5744 5746 5746 5747 5749 5752 5754 5756 5758 5761 5764 5766 5766
5621 5622 5627 5630 5633 5642 5645 5645 5651 5655 5654 5652 5659 5663 5692 5694 5700 5703 5703 5706 5710 5710 5713 5715 5717 5719 5721 5724 5727 5729 5732 5734 5737 5737 5738 5739 5741 5742 5744 5745 5749 5753 5755 5755
5614 5615 5618 5625 5628 5629 5632 5637 5642 5639 5648 5649 5651 5653 5674 5678 5690 5694 5694 5695 5694 5695 5700 5703 5705 5708 5710 5712 5715 5718 5720 5723 5725 5726 5726 5729 5730 5731 5732 5734 5738 5741 5743 5743
5605 5608 5611 5615 5621 5624 5625 5631 5631 5634 5638 5636 5639 5649 5663 5668 5674 5679 5680 5680 5677 5678 5685 5692 5693 5696 5700 5703 5705 5707 5708 5711 5712 5715 5716 5718 5721 5722 5723 5726 5728 5729 5730 5732
5595 5599 5604 5609 5616 5615 5615 5621 5623 5624 5624 5630 5629 5641 5654 5659 5661 5662 5665 5663 5666 5674 5677 5678 5682 5684 5684 5687 5690 5692 5694 5697 5700 5704 5707 5709 5710 5711 5713 5715 5716 5717 5719 5720
5589 5593 5597 5601 5602 5603 5605 5607 5611 5611 5616 5613 5625 5622 5639 5649 5646 5650 5649 5650 5658 5663 5664 5662 5666 5669 5669 5671 5672 5673 5677 5681 5685 5690 5695 5698 5699 5701 5702 5705 5707 5707 5708 5709
5582 5585 5588 5591 5591 5593 5594 5599 5602 5605 5608 5606 5610 5610 5631 5635 5632 5628 5628 5636 5643 5643 5640 5645 5650 5653 5653 5652 5655 5658 5662 5665 5671 5675 5680 5684 5686 5686 5690 5692 5693 5695 5697 5697
5574 5576 5579 5581 5582 5582 5585 5595 5593 5594 5596 5598 5597 5609 5617 5615 5610 5612 5624 5618 5616 5619 5623 5628 5631 5632 5636 5639 5643 5645 5647 5649 5656 5662 5666 5668 5670 5671 5673 5675 5679 5681 5682 5684
5566 5569 5571 5571 5572 5573 5583 5582 5582 5583 5586 5587 5587 5593 5601 5595 5602 5606 5595 5599 5603 5606 5608 5612 5615 5619 5624 5629 5629 5629 5634 5636 5640 5648 5650 5650 5651 5656 5658 5660 5663 5665 5667 5669
5560 5561 5562 5563 5564 5567 5572 5574 5574 5571 5576 5574 5576 5581 5585 5585 5590 5585 5586 5584 5586 5586 5590 5593 5596 5602 5608 5612 5610 5613 5619 5622 5626 5633 5632 5632 5634 5640 5644 5647 5648 5649 5651 5653
5553 5554 5556 5555 5555 5555 5559 5563 5563 5558 5562 5566 5567 5569 5570 5569 5568 5568 5567 5570 5570 5570 5573 5577 5583 5588 5589 5592 5594 5602 5607 5607 5616 5611 5613 5616 5619 5622 5627 5629 5632 5635 5635 5637
5544 5545 5546 5546 5545 5545 5547 5551 5549 5549 5557 5552 5552 5553 5554 5553 5552 5553 5551 5555 5554 5556 5559 5561 5565 5571 5573 5574 5576 5586 5590 5597 5593 5595 5598 5602 5605 5608 5611 5613 5617 5619 5621 5622
5536 5536 5536 5536 5535 5534 5538 5537 5537 5538 5538 5537 5537 5537 5537 5536 5537 5536 5533 5536 5540 5543 5543 5544 5549 5553 5557 5558 5560 5567 5571 5572 5575 5580 5584 5586 5589 5592 5594 5596 5600 5602 5603 5606
5527 5529 5529 5530 5528 5525 5526 5526 5525 5524 5523 5522 5521 5521 5520 5520 5520 5521 5519 5518 5522 5526 5528 5530 5532 5537 5539 5540 5543 5549 5551 5554 5559 5562 5566 5568 5570 5572 5576 5580 5582 5583 5586 5587
5518 5518 5520 5521 5519 5515 5514 5514 5513 5511 5510 5507 5505 5504 5504 5503 5502 5504 5505 5505 5505 5507 5511 5513 5515 5517 5522 5523 5526 5529 5533 5535 5539 5544 5547 5549 5552 5555 5556 5559 5563 5565 5568 5569
5509 5509 5509 5509 5509 5504 5503 5500 5498 5497 5494 5491 5490 5487 5484 5484 5486 5484 5486 5486 5487 5488 5491 5494 5497 5499 5502 5504 5508 5512 5514 5517 5520 5523 5526 5530 5532 5534 5536 5538 5541 5544 5548 5550
5499 5498 5496 5497 5497 5493 5491 5487 5483 5482 5480 5476 5472 5474 5468 5462 5463 5466 5467 5465 5467 5469 5471 5474 5477 5479 5482 5486 5489 5493 5496 5499 5503 5505 5508 5510 5511 5514 5516 5518 5520 5523 5527 5530